This is the latest recevied weather packets stored in our database for station/object K1ZK-13. If no packets are shown the sender has not sent any weather packets the latest 10 day(s).
| Time | Temp. | Humidity | Pressure | Rain* | Wind** | Luminosity | Snow |
|---|---|---|---|---|---|---|---|
| 1777929472 | 20° C | 41% | 1004.2 hPa | 0 mm | - | 87 W/m² | - |
| 1777929168 | 20° C | 43% | 1004.4 hPa | 0 mm | - | 98 W/m² | - |
| 1777928866 | 20° C | 44% | 1004.2 hPa | 0 mm | - | 126 W/m² | - |
| 1777928563 | 20° C | 45% | 1004.1 hPa | 0 mm | - | 115 W/m² | - |
| 1777928260 | 20.56° C | 45% | 1004.3 hPa | 0 mm | - | 114 W/m² | - |
| 1777927958 | 20° C | 46% | 1004.4 hPa | 0 mm | - | 395 W/m² | - |
| 1777927656 | 20.56° C | 47% | 1004.2 hPa | 0 mm | - | 109 W/m² | - |
| 1777927354 | 20.56° C | 48% | 1004 hPa | 0 mm | - | 352 W/m² | - |
| 1777927053 | 20.56° C | 50% | 1004.4 hPa | 0 mm | - | 158 W/m² | - |
| 1777926750 | 20.56° C | 46% | 1004.2 hPa | 0 mm | - | 188 W/m² | - |
| 1777926450 | 20° C | 48% | 1004.3 hPa | 0 mm | - | 377 W/m² | - |
| 1777926147 | 20.56° C | 50% | 1004.3 hPa | 0 mm | - | 129 W/m² | - |
| 1777925844 | 19.44° C | 48% | 1004.6 hPa | 0 mm | - | 293 W/m² | - |
| 1777925541 | 19.44° C | 48% | 1004.6 hPa | 0 mm | - | 144 W/m² | - |
| 1777925239 | 20.56° C | 47% | 1004.5 hPa | 0 mm | - | 136 W/m² | - |
| 1777924935 | 20.56° C | 49% | 1004.5 hPa | 0 mm | - | 266 W/m² | - |
| 1777924631 | 20.56° C | 48% | 1004.6 hPa | 0 mm | - | 147 W/m² | - |
| 1777924327 | 20.56° C | 46% | 1004.6 hPa | 0 mm | - | 558 W/m² | - |
| 1777924024 | 19.44° C | 48% | 1004.8 hPa | 0 mm | - | 332 W/m² | - |
| 1777923721 | 20° C | 45% | 1004.9 hPa | 0 mm | - | 166 W/m² | - |
| 1777923417 | 20.56° C | 49% | 1005.2 hPa | 0 mm | - | 256 W/m² | - |
| 1777923115 | 20.56° C | 45% | 1005.1 hPa | 0 mm | - | 558 W/m² | - |
| 1777922813 | 20° C | 45% | 1005 hPa | 0 mm | - | 580 W/m² | - |
| 1777922510 | 20.56° C | 48% | 1005.2 hPa | 0 mm | - | 628 W/m² | - |
| 1777922209 | 19.44° C | 47% | 1005.2 hPa | 0 mm | - | 602 W/m² | - |
* Rain latest hour (hover to see other rain measurements)
** Current wind speed in m/s (hover to see current wind gust speed)